Fergus Falls, MN

11:09 AM CST on November 20, 2019 (GMT -0600)
Fergus Falls Municipal-Mickelson

Weather History for KFFM - September, 2019

Change the Weather History Date:

Saturday, September 7, 2019

  Actual Average Record
Temperature  
Mean Temperature 54 °F -  
Max Temperature 57 °F 74 °F 96 °F (1978)
Min Temperature 50 °F 51 °F 39 °F (1956)
Degree Days  
Heating Degree Days 12    
Growing Degree Days 4 (Base 50)    
Moisture  
Dew Point 51 °F    
Average Humidity 89    
Maximum Humidity 100    
Minimum Humidity 77    
Precipitation  
Precipitation 0.00 in - - ()
Sea Level Pressure  
Sea Level Pressure 30.14 in    
Wind  
Wind Speed 2 mph ()    
Max Wind Speed 10 mph    
Max Gust Speed -    
Visibility 9.7 miles    
Events Rain    
Averages and records for this station are not official NWS values.
T = Trace of Precipitation, MM = Missing Value Source: Averaged Metar Reports

Daily Weather History Graph

Daily Weather History Graph

Search for Another Location

Airport or City:

Astronomy

Sep. 07, 2019 Rise Set
Actual Time 6:52 AM CDT 7:52 PM CDT
Civil Twilight 6:21 AM CDT 8:22 PM CDT
Nautical Twilight 5:44 AM CDT 8:59 PM CDT
Astronomical Twilight 5:06 AM CDT 9:37 PM CDT
Moon 4:25 PM CDT (9/7) 12:29 AM CDT (9/7)
Length of Visible Light 14h 01m
Length of Day
12h 59m
Waxing Gibbous, 66% of the Moon is Illuminated
Sep 7
Waxing Gibbous
Sep 13
Full
Sep 21
Last Quarter
Sep 28
New
Oct 5
First Quarter

Hourly Weather History & Observations

Time (CDT) Temp. Dew Point Humidity Pressure Visibility Wind Dir Wind Speed Gust Speed Precip Events Conditions
12:16 AM 57.2 °F 53.6 °F 88% 30.14 in 10.0 mi Calm Calm - N/A   Clear
12:35 AM 55.4 °F 51.8 °F 88% 30.15 in 10.0 mi Calm Calm - N/A   Clear
12:36 AM 55.4 °F 51.8 °F 88% 30.15 in 10.0 mi Calm Calm - N/A   Clear
12:55 AM 53.6 °F 51.8 °F 94% 30.15 in 10.0 mi Calm Calm - N/A   Clear
12:56 AM 53.6 °F 51.8 °F 94% 30.15 in 10.0 mi Calm Calm - N/A   Clear
1:18 AM 53.6 °F 51.8 °F 94% 30.15 in 10.0 mi North 3.5 mph - N/A   Clear
1:36 AM 53.6 °F 51.8 °F 94% 30.15 in 10.0 mi Calm Calm - N/A   Clear
1:55 AM 53.6 °F 51.8 °F 94% 30.15 in 10.0 mi Calm Calm - N/A   Clear
2:15 AM 53.6 °F 51.8 °F 94% 30.15 in 10.0 mi Calm Calm - N/A   Clear
2:16 AM 53.6 °F 51.8 °F 94% 30.15 in 10.0 mi Calm Calm - N/A   Clear
2:35 AM 53.6 °F 51.8 °F 94% 30.15 in 10.0 mi Calm Calm - N/A   Clear
2:40 AM 53.6 °F 51.8 °F 94% 30.15 in 10.0 mi Calm Calm - N/A   Clear
2:57 AM 53.6 °F 51.8 °F 94% 30.15 in 10.0 mi Calm Calm - N/A   Clear
3:15 AM 53.6 °F 51.8 °F 94% 30.15 in 10.0 mi Calm Calm - N/A   Clear
3:35 AM 53.6 °F 51.8 °F 94% 30.15 in 10.0 mi Calm Calm - N/A   Clear
3:55 AM 51.8 °F 51.8 °F 100% 30.16 in 10.0 mi Calm Calm - N/A   Clear
3:56 AM 51.8 °F 51.8 °F 100% 30.16 in 10.0 mi Calm Calm - N/A   Clear
4:19 AM 50.0 °F 48.2 °F 94% 30.15 in 10.0 mi Calm Calm - N/A   Clear
4:37 AM 51.8 °F 48.2 °F 88% 30.15 in 10.0 mi Calm Calm - N/A   Clear
4:56 AM 51.8 °F 51.8 °F 100% 30.14 in 10.0 mi NE 3.5 mph - N/A   Clear
5:15 AM 51.8 °F 51.8 °F 100% 30.14 in 10.0 mi Calm Calm - N/A   Clear
5:16 AM 51.8 °F 51.8 °F 100% 30.14 in 10.0 mi Calm Calm - N/A   Clear
5:35 AM 51.8 °F 51.8 °F 100% 30.13 in 10.0 mi Calm Calm - N/A   Clear
5:39 AM 51.8 °F 51.8 °F 100% 30.13 in 10.0 mi Calm Calm - N/A   Clear
5:58 AM 51.8 °F 51.8 °F 100% 30.13 in 10.0 mi Calm Calm - N/A   Clear
6:15 AM 51.8 °F 50.0 °F 94% 30.14 in 10.0 mi Calm Calm - N/A   Clear
6:35 AM 53.6 °F 51.8 °F 94% 30.14 in 10.0 mi Calm Calm - N/A   Clear
6:36 AM 53.6 °F 51.8 °F 94% 30.14 in 10.0 mi Calm Calm - N/A   Clear
6:55 AM 51.8 °F 51.8 °F 100% 30.13 in 10.0 mi NE 3.5 mph - N/A   Clear
6:56 AM 51.8 °F 51.8 °F 100% 30.13 in 10.0 mi NE 4.6 mph - N/A   Clear
7:18 AM 53.6 °F 51.8 °F 94% 30.13 in 10.0 mi Calm Calm - N/A   Clear
7:37 AM 53.6 °F 51.8 °F 94% 30.13 in 10.0 mi Calm Calm - N/A   Clear
7:56 AM 53.6 °F 51.8 °F 94% 30.14 in 10.0 mi Calm Calm - N/A   Clear
8:15 AM 55.4 °F 51.8 °F 88% 30.13 in 10.0 mi ENE 3.5 mph - N/A   Clear
8:16 AM 55.4 °F 51.8 °F 88% 30.13 in 10.0 mi ENE 3.5 mph - N/A   Clear
8:35 AM 55.4 °F 50.0 °F 82% 30.15 in 10.0 mi Calm Calm - N/A   Scattered Clouds
8:39 AM 55.4 °F 50.0 °F 82% 30.15 in 10.0 mi Calm Calm - N/A   Scattered Clouds
8:57 AM 55.4 °F 50.0 °F 82% 30.15 in 10.0 mi NE 3.5 mph - N/A Rain Light Rain
9:16 AM 55.4 °F 51.8 °F 88% 30.14 in 10.0 mi NE 3.5 mph - N/A Rain Light Rain
9:35 AM 55.4 °F 51.8 °F 88% 30.13 in 5.0 mi NE 4.6 mph - N/A Rain Rain
9:36 AM 55.4 °F 51.8 °F 88% 30.13 in 5.0 mi NE 5.8 mph - N/A Rain Light Rain
9:55 AM 55.4 °F 51.8 °F 88% 30.13 in 10.0 mi NNE 6.9 mph - N/A Rain Light Rain
9:56 AM 55.4 °F 51.8 °F 88% 30.13 in 10.0 mi NNE 9.2 mph - N/A Rain Light Rain
10:18 AM 55.4 °F 51.8 °F 88% 30.13 in 10.0 mi NE 8.1 mph - N/A   Clear
10:36 AM 55.4 °F 51.8 °F 88% 30.14 in 10.0 mi NNE 9.2 mph - N/A   Clear
10:55 AM 55.4 °F 51.8 °F 88% 30.14 in 10.0 mi NE 6.9 mph - N/A   Clear
10:56 AM 55.4 °F 51.8 °F 88% 30.14 in 10.0 mi NE 5.8 mph - N/A   Clear
11:15 AM 57.2 °F 51.8 °F 82% 30.14 in 10.0 mi NE 10.4 mph - N/A   Clear
11:16 AM 57.2 °F 51.8 °F 82% 30.14 in 10.0 mi ENE 9.2 mph - N/A   Clear
11:38 AM 57.2 °F 51.8 °F 82% 30.15 in 10.0 mi East 5.8 mph - N/A   Clear
11:55 AM 57.2 °F 51.8 °F 82% 30.16 in 10.0 mi Calm Calm - N/A Rain Light Rain
12:15 PM 55.4 °F 51.8 °F 88% 30.16 in 10.0 mi Calm Calm - N/A Rain Light Rain
12:16 PM 55.4 °F 51.8 °F 88% 30.16 in 10.0 mi Calm Calm - N/A Rain Light Rain
12:35 PM 55.4 °F 51.8 °F 88% 30.16 in 7.0 mi North 3.5 mph - N/A Rain Light Rain
12:36 PM 55.4 °F 51.8 °F 88% 30.16 in 7.0 mi NNE 3.5 mph - N/A Rain Light Rain
12:58 PM 55.4 °F 51.8 °F 88% 30.16 in 10.0 mi Calm Calm - N/A Rain Light Rain
1:17 PM 55.4 °F 51.8 °F 88% 30.15 in 10.0 mi Calm Calm - N/A Rain Light Rain
1:36 PM 55.4 °F 51.8 °F 88% 30.15 in 7.0 mi NNE 3.5 mph - N/A Rain Light Rain
1:55 PM 55.4 °F 48.2 °F 77% 30.15 in 10.0 mi NE 4.6 mph - N/A Rain Light Rain
1:56 PM 55.4 °F 48.2 °F 77% 30.15 in 10.0 mi NE 4.6 mph - N/A Rain Light Rain
2:15 PM 55.4 °F 50.0 °F 82% 30.15 in 10.0 mi NE 3.5 mph - N/A Rain Light Rain
2:19 PM 55.4 °F 50.0 °F 82% 30.15 in 10.0 mi NNE 3.5 mph - N/A Rain Light Rain
2:37 PM 55.4 °F 50.0 °F 82% 30.15 in 10.0 mi NNE 4.6 mph - N/A Rain Light Rain
2:55 PM 55.4 °F 48.2 °F 77% 30.14 in 10.0 mi NE 4.6 mph - N/A   Light Drizzle
3:15 PM 55.4 °F 51.8 °F 88% 30.14 in 10.0 mi NE 3.5 mph - N/A   Light Drizzle
3:16 PM 55.4 °F 51.8 °F 88% 30.14 in 10.0 mi NE 3.5 mph - N/A   Light Drizzle
3:35 PM 55.4 °F 51.8 °F 88% 30.13 in 10.0 mi NNE 3.5 mph - N/A Rain Light Rain
3:36 PM 55.4 °F 51.8 °F 88% 30.13 in 10.0 mi NNE 4.6 mph - N/A Rain Light Rain
3:58 PM 53.6 °F 48.2 °F 82% 30.13 in 10.0 mi NNE 4.6 mph - N/A Rain Light Rain
4:16 PM 53.6 °F 50.0 °F 88% 30.12 in 10.0 mi NE 5.8 mph - N/A   Light Drizzle
4:35 PM 53.6 °F 50.0 °F 88% 30.11 in 10.0 mi ENE 8.1 mph - N/A   Light Drizzle
4:55 PM 53.6 °F 48.2 °F 82% 30.10 in 10.0 mi ENE 6.9 mph - N/A   Clear
4:56 PM 53.6 °F 48.2 °F 82% 30.10 in 10.0 mi ENE 6.9 mph - N/A   Clear
5:18 PM 53.6 °F 51.8 °F 94% 30.10 in 10.0 mi East 6.9 mph - N/A Rain Light Rain
5:35 PM 53.6 °F 50.0 °F 88% 30.10 in 10.0 mi East 9.2 mph - N/A   Scattered Clouds
5:55 PM 53.6 °F 48.2 °F 82% 30.10 in 10.0 mi East 8.1 mph - N/A   Mostly Cloudy
5:56 PM 53.6 °F 48.2 °F 82% 30.10 in 10.0 mi East 6.9 mph - N/A   Mostly Cloudy
6:15 PM 53.6 °F 50.0 °F 88% 30.11 in 7.0 mi ESE 3.5 mph - N/A Rain Light Rain
6:16 PM 53.6 °F 50.0 °F 88% 30.11 in 7.0 mi ESE 3.5 mph - N/A Rain Light Rain
6:38 PM 53.6 °F 50.0 °F 88% 30.11 in 10.0 mi East 4.6 mph - N/A Rain Light Rain
6:57 PM 53.6 °F 50.0 °F 88% 30.11 in 10.0 mi East 3.5 mph - N/A Rain Light Rain
7:16 PM 53.6 °F 50.0 °F 88% 30.12 in 7.0 mi East 4.6 mph - N/A Rain Light Rain
7:35 PM 53.6 °F 51.8 °F 94% 30.12 in 10.0 mi East 3.5 mph - N/A Rain Light Rain
7:36 PM 53.6 °F 51.8 °F 94% 30.12 in 10.0 mi East 3.5 mph - N/A Rain Light Rain
7:55 PM 53.6 °F 51.8 °F 94% 30.13 in 10.0 mi Calm Calm - N/A   Mostly Cloudy
8:16 PM 53.6 °F 50.0 °F 88% 30.13 in 10.0 mi East 4.6 mph - N/A   Mostly Cloudy
8:35 PM 53.6 °F 50.0 °F 88% 30.13 in 10.0 mi Calm Calm - N/A Rain Light Rain
8:36 PM 53.6 °F 50.0 °F 88% 30.14 in 10.0 mi Calm Calm - N/A Rain Light Rain
8:55 PM 53.6 °F 48.2 °F 82% 30.14 in 10.0 mi East 4.6 mph - N/A   Light Drizzle
8:56 PM 53.6 °F 48.2 °F 82% 30.14 in 10.0 mi East 4.6 mph - N/A   Overcast
9:15 PM 51.8 °F 48.2 °F 88% 30.15 in 10.0 mi East 4.6 mph - N/A   Overcast
9:20 PM 51.8 °F 48.2 °F 88% 30.15 in 10.0 mi East 4.6 mph - N/A   Overcast
9:37 PM 51.8 °F 48.2 °F 88% 30.15 in 10.0 mi East 5.8 mph - N/A   Overcast
9:55 PM 51.8 °F 48.2 °F 88% 30.15 in 10.0 mi East 3.5 mph - N/A   Overcast
10:15 PM 51.8 °F 48.2 °F 88% 30.16 in 10.0 mi East 4.6 mph - N/A   Overcast
10:16 PM 51.8 °F 48.2 °F 88% 30.16 in 10.0 mi East 5.8 mph - N/A   Overcast
10:35 PM 51.8 °F 48.2 °F 88% 30.16 in 10.0 mi East 4.6 mph - N/A   Overcast
10:36 PM 51.8 °F 48.2 °F 88% 30.16 in 10.0 mi East 4.6 mph - N/A   Overcast
10:58 PM 51.8 °F 48.2 °F 88% 30.16 in 10.0 mi East 4.6 mph - N/A   Overcast
11:17 PM 51.8 °F 48.2 °F 88% 30.16 in 10.0 mi East 5.8 mph - N/A Rain Light Rain
11:36 PM 51.8 °F 48.2 °F 88% 30.16 in 10.0 mi East 3.5 mph - N/A   Overcast
11:55 PM 51.8 °F 48.2 °F 88% 30.15 in 10.0 mi East 5.8 mph - N/A   Light Drizzle
11:56 PM 51.8 °F 48.2 °F 88% 30.15 in 10.0 mi East 6.9 mph - N/A   Light Drizzle